Flag for Greenland Weather past 2 weeks in Ilulissat, Greenland

Now
28 °F

Scattered clouds.


Feels Like: 20 °F
Forecast: 24 / 31 °F
Wind: 8 mph from Southwest

Location: Jacobshavn Lufthavn

Current Time: May 22, 2015 at 11:36:32 PM

Latest Report: May 22, 2015 at 10:50 PM


Visibility: N/A

Pressure: 29.59 "Hg

Humidity: 80%

Dew point: 23 °F

Location of IlulissatLocation

Historic Weather in Ilulissat — Graph

°F

Ilulissat temperature yesterday

Maximum temperature yesterday: 32 °F (at 4:50 PM)
Minimum temperature yesterday: 27 °F (at 12:50 AM)
Average temperature yesterday: 29 °F

Past Weeks' High & Low Weather Summary

 TemperatureHumidityPressure
High46 °F (May 14, 10:50 AM)100% (May 9, 12:50 AM)30.27 "Hg (May 9, 12:50 AM)
Low21 °F (May 11, 12:50 AM)34% (May 14, 12:50 PM)29.15 "Hg (May 14, 2:50 PM)
Average31 °F72%29.72 "Hg
* Reported May 7 9:50 PM — May 22 9:50 PM, Ilulissat, Weather by CustomWeather, © 2015

Note: Actual official high and low records may vary slightly from our data, if they occured in-between our weather recording intervals... More about our weather records

Advertising

Ilulissat weather history for previous 24 hours

 ConditionsComfort  
Time TempWeatherWind HumidityBarometerVisibility
9:50 PM
Fri, May 22
30 °FPartly sunny.6 mph69%29.56 "HgN/A
8:50 PM30 °FChilly.6 mph69%29.56 "HgN/A
7:50 PM34 °FPartly sunny.6 mph56%29.53 "HgN/A
6:50 PM34 °FPartly sunny.3 mph60%29.53 "HgN/A
5:50 PM32 °FPartly sunny.5 mph60%29.50 "HgN/A
4:50 PM34 °FPartly sunny.5 mph60%29.50 "HgN/A
3:50 PM34 °FPartly sunny.6 mph56%29.47 "HgN/A
2:50 PM32 °FPartly sunny.6 mph60%29.47 "HgN/A
1:50 PM32 °FPartly sunny.5 mph60%29.45 "HgN/A
12:50 PM30 °FPartly sunny.5 mph55%29.45 "HgN/A
11:50 AM30 °FPartly sunny.5 mph55%29.45 "HgN/A
10:50 AM30 °FPartly sunny.5 mph55%29.45 "HgN/A
9:50 AM30 °FScattered clouds.5 mph55%29.45 "HgN/A
8:50 AM30 °FPassing clouds.3 mph47%29.47 "HgN/A
7:50 AM28 °FPassing clouds.2 mph51%29.47 "HgN/A
6:50 AM27 °FPassing clouds.3 mph54%29.50 "HgN/A
5:50 AM27 °FChilly.6 mph54%29.50 "HgN/A
4:50 AM27 °FChilly.5 mph54%29.53 "HgN/A
3:50 AM25 °FCold.3 mph54%29.56 "HgN/A
2:50 AM27 °FChilly.5 mph50%29.56 "HgN/A
1:50 AM27 °FChilly.7 mph54%29.59 "HgN/A
12:50 AM25 °FCold.7 mph59%29.62 "HgN/A
11:50 PM
Thu, May 21
28 °FChilly.3 mph51%29.65 "HgN/A
Weather by CustomWeather, © 2015

See weather overviewHow to use our weather pages